sat.trackr.live / text

‹ back to catalog

STARLINK-31501

NORAD 59359 · 2024-060M

PAYLOAD ACTIVE UNKNOWN

§ Identity

Operator
Country
US
Launch date
2024-03-31
Launch site
AFETR
Launch vehicle
Mass (kg)
RCS (m²)

Purposes: comms

External: N2YO · Heavens-Above · Gunter

§ Orbital elements

Epoch: 2026-09-20T15:07:24.209184Z

Period
94.27 min
Inclination
42.9987°
Eccentricity
0.0001123
Mean motion
15.27573538 rev/d
Perigee alt
482.3 km
Apogee alt
483.8 km
Semi-major
6,861.2 km
B*
-2.2208e-6
RAAN
239.1789°
Arg perigee
273.7350°
Mean anomaly
86.3373°
Rev number
13,987

§ Raw data

STARLINK-315011 59359U 24060M   26263.63014131 -.00000323  00000+0 -22208-5 0  99992 59359  42.9987 239.1789 0001123 273.7350  86.3373 15.27573538139879

JSON: /api/v1/satellites/59359 · /tle

For live sub-satellite position, see the globe view (requires WebGL).

§ Visibility from observer

Set your observer location to see the next 7 days of passes ≥ 10°. The values pass through the URL so the page stays shareable.

No JS? Fill the form by hand. The geolocation button needs JavaScript.